Regional Weather Roundup
Issued by NWS

Home | Current Version | Previous Version | Text Only | Print | Product List | Glossary Off
Versions: 1 2 3 4 5 6 7 8 9 10 11 12 13 14 15 16 17 18 19 20 21 22 23 24 25 26 27 28 29 30 31 32 33 34 35 36 37 38 39 40 41 42 43 44 45 46 47 48 49 50

000
ASUS43 KLMK 280102
RWRKY
KENTUCKY REGIONAL WEATHER ROUNDUP
NATIONAL WEATHER SERVICE LOUISVILLE KY
800 PM EST SAT DEC 27 2014

NOTE "FAIR" INDICATES FEW OR NO CLOUDS BELOW 12,000 FEET
WITH NO SIGNIFICANT WEATHER AND/OR OBSTRUCTIONS TO VISIBILITY.

KYZ001>023-026-027-061>063-070>075-280200-
WESTERN AND SOUTH CENTRAL KENTUCKY

CITY           SKY/WX    TMP DP  RH WIND       PRES   REMARKS
PADUCAH        LGT RAIN  47  45  93 N18G26    30.12R FOG
HENDERSON      CLOUDY    48  45  87 W5        30.11S
OWENSBORO      CLOUDY    48  48 100 SW3       30.11R FOG
HOPKINSVILLE   CLOUDY    49  48  97 S5        30.09S
BOWLING GREEN  LGT RAIN  49  46  90 S7        30.12F
GLASGOW        NOT AVBL
$$

KYZ024-025-028>034-038-045-046-053-280200-
NORTH CENTRAL KENTUCKY

CITY           SKY/WX    TMP DP  RH WIND       PRES   REMARKS
LOUISVILLE/SDF CLOUDY    49  47  93 S6        30.09F
LOUISVILLE/LOU CLOUDY    48  47  96 S6        30.10F
FORT KNOX      CLOUDY    48  46  93 S9        30.07F
$$

KYZ035>037-039>044-047>052-055>060-089>105-280200-
NORTHEAST KENTUCKY

CITY           SKY/WX    TMP DP  RH WIND       PRES   REMARKS
LEXINGTON      CLOUDY    46  45  96 SW6       30.12F
COVINGTON      LGT RAIN  48  44  86 S9        30.07F
FRANKFORT      CLOUDY    47  45  93 S5        30.09F
$$

KYZ054-064>069-076>088-106>120-280200-
SOUTHEAST KENTUCKY

CITY           SKY/WX    TMP DP  RH WIND       PRES   REMARKS
JACKSON        LGT RAIN  52  34  50 VRB3      30.12S
LONDON         LGT RAIN  48  41  76 S6        30.15F
SOMERSET       NOT AVBL
MIDDLESBORO    LGT RAIN  47  44  90 CALM      30.18S
MONTICELLO     CLOUDY    49  46  89 SE3       30.17F
$$



USA.gov is the U.S. government's official web portal to all federal, state and local government web resources and services.